Probability
45 48 48 52 52 58 61 65 65 68 68 77 71 77 68 68 65 55 55 42 42 39 45 45 42 45 39 42 42 39 39 29 32 16 13 6 13 13 19 19 16 6 13
45 42 42 42 52 55 55 52 58 61 65 68 71 74 74 65 55 52 52 42 42 42 39 39 42 39 42 45 45 26 23 19 23 16 3 3 0 3 3 13 13 13 13
35 29 32 29 29 35 39 42 45 55 52 52 65 68 68 55 52 55 45 42 42 39 32 26 29 35 35 35 32 26 29 13 16 6 6 0 0 0 3 3 10 10 6
23 19 19 16 16 19 23 32 35 42 45 52 52 52 55 48 45 45 42 42 39 26 26 26 26 26 29 26 23 23 16 13 10 6 3 0 0 0 0 0 0 0 0
19 13 10 10 13 13 13 13 19 32 35 42 42 39 39 35 32 32 39 39 29 19 19 19 19 23 23 19 13 10 10 10 10 6 0 0 0 0 0 0 0 0 0
10 10 10 10 10 6 13 13 16 19 19 32 35 35 29 26 26 29 32 29 19 19 13 16 16 16 16 13 13 10 10 10 6 3 3 0 0 0 0 0 0 0 0
10 10 6 6 6 3 3 6 6 6 6 13 16 16 19 19 16 16 16 19 16 10 13 13 16 16 13 10 10 10 10 10 3 3 0 0 0 0 0 0 0 0 0
10 10 3 3 3 3 3 3 3 3 3 6 6 10 13 16 16 16 13 10 6 3 6 10 6 3 3 3 3 6 3 3 3 0 0 0 0 0 0 0 0 0 0
6 3 3 3 3 3 3 3 0 0 0 0 0 3 3 6 6 6 6 3 3 3 3 0 0 0 3 3 3 3 3 0 0 0 0 0 0 0 0 0 0 0 0
3 3 3 3 3 3 0 0 0 0 0 0 0 0 0 3 3 3 3 3 3 0 0 0 0 0 0 0 0 0 0 0 0 0 0 0 0 0 0 0 0 0 0
3 3 3 0 0 0 0 0 0 0 0 0 0 0 0 0 3 3 0 0 0 0 0 0 0 0 0 0 0 0 0 0 0 0 0 0 0 0 0 0 0 0 0
3 0 0 0 0 0 0 0 0 0 0 0 0 0 0 0 0 0 0 0 0 0 0 0 0 0 0 0 0 0 0 0 0 0 0 0 0 0 0 0 0 0 0
0 0 0 0 0 0 0 0 0 0 0 0 0 0 0 0 0 0 0 0 0 0 0 0 0 0 0 0 0 0 0 0 0 0 0 0 0 0 0 0 0 0 0
0 0 0 0 0 0 0 0 0 0 0 0 0 0 0 0 0 0 0 0 0 0 0 0 0 0 0 0 0 0 0 0 0 0 0 0 0 0 0 0 0 0 0
0 0 0 0 0 0 0 0 0 0 0 0 0 0 0 0 0 0 0 0 0 0 0 0 0 0 0 0 0 0 0 0 0 0 0 0 0 0 0 0 0 0 0
0 0 0 0 0 0 0 0 0 0 0 0 0 0 0 0 0 0 0 0 0 0 0 0 0 0 0 0 0 0 0 0 0 0 0 0 0 0 0 0 0 0 0
0 0 0 0 0 0 0 0 0 0 0 0 0 0 0 0 0 0 0 0 0 0 0 0 0 0 0 0 0 0 0 0 0 0 0 0 0 0 0 0 0 0 0
0 0 0 0 0 0 0 0 0 0 0 0 0 0 0 0 0 0 0 0 0 0 0 0 0 0 0 0 0 0 0 0 0 0 0 0 0 0 0 0 0 0 0
3 0 0 0 0 0 0 0 0 0 0 0 0 0 0 0 0 0 0 0 0 0 0 0 0 0 0 0 0 0 0 0 0 0 0 0 0 0 0 0 0 0 0
0 0 0 0 0 0 0 0 0 0 0 0 0 0 0 0 0 0 0 0 0 0 0 0 0 0 0 0 0 0 0 0 0 0 0 0 0 0 0 0 0 0 0
0 0 0 0 0 0 0 0 0 0 0 0 0 0 0 0 0 0 0 0 0 0 0 0 0 0 0 0 0 0 0 0 0 0 0 0 0 0 0 0 0 0 0
0 0 0 0 0 0 0 0 0 0 0 0 0 0 0 0 0 0 0 0 0 0 0 0 0 0 0 0 0 0 0 0 0 0 0 0 0 0 0 0 0 0 0
0 0 0 0 0 0 0 0 0 0 0 0 0 0 0 0 0 0 0 0 0 0 0 0 0 0 0 0 0 0 0 0 0 0 0 0 0 0 0 0 0 0 0
0 0 0 0 0 0 0 0 0 0 0 0 0 0 0 0 0 0 0 0 0 0 0 0 0 0 0 0 0 0 0 0 0 0 0 0 0 0 0 0 0 0 0
0 0 0 0 0 0 0 0 0 0 0 0 0 0 0 0 0 0 0 0 0 0 0 0 0 0 0 0 0 0 0 0 0 0 0 0 0 0 0 0 0 0 0
0 0 0 0 0 0 0 0 0 0 0 0 0 0 0 0 0 0 0 0 0 0 0 0 0 0 0 0 0 0 0 0 0 0 0 0 0 0 0 0 0 0 0
Height
5834 5834 5835 5836 5836 5836 5837 5836 5836 5837 5837 5837 5837 5837 5837 5837 5837 5836 5836 5836 5835 5835 5834 5834 5833 5833 5833 5834 5835 5836 5837 5837 5838 5839 5841 5842 5843 5845 5846 5847 5848 5849 5850
5831 5831 5832 5832 5832 5832 5832 5831 5831 5831 5831 5831 5830 5830 5830 5830 5830 5829 5829 5829 5829 5829 5828 5828 5826 5826 5827 5827 5828 5829 5830 5831 5832 5833 5834 5835 5837 5838 5839 5840 5842 5843 5844
5827 5828 5828 5828 5827 5827 5826 5826 5826 5826 5825 5825 5824 5824 5824 5824 5823 5823 5823 5823 5822 5822 5821 5821 5820 5819 5820 5821 5822 5822 5823 5824 5825 5826 5827 5828 5830 5830 5832 5833 5835 5836 5837
5823 5823 5824 5823 5823 5822 5822 5821 5821 5820 5820 5819 5818 5818 5817 5817 5817 5816 5816 5816 5816 5815 5814 5814 5814 5814 5814 5814 5815 5815 5815 5817 5818 5819 5820 5822 5822 5823 5825 5826 5827 5828 5829
5819 5819 5819 5819 5818 5818 5817 5816 5816 5815 5814 5813 5812 5811 5811 5810 5810 5809 5809 5809 5809 5809 5808 5807 5807 5807 5807 5807 5807 5808 5808 5809 5810 5811 5812 5814 5815 5816 5817 5819 5820 5821 5821
5815 5815 5814 5814 5813 5813 5812 5811 5810 5809 5808 5807 5806 5805 5804 5804 5803 5802 5802 5802 5802 5802 5802 5801 5800 5800 5800 5800 5801 5801 5801 5802 5803 5804 5805 5806 5807 5808 5810 5811 5812 5813 5814
5811 5810 5810 5809 5808 5808 5807 5806 5805 5803 5802 5801 5800 5799 5798 5797 5797 5796 5796 5796 5796 5795 5795 5795 5794 5793 5793 5794 5794 5794 5795 5795 5796 5797 5798 5799 5800 5801 5802 5803 5804 5805 5806
5807 5806 5805 5804 5803 5802 5801 5800 5799 5797 5796 5795 5793 5792 5792 5791 5790 5790 5789 5789 5789 5789 5788 5788 5788 5787 5787 5787 5788 5788 5788 5789 5789 5790 5791 5792 5792 5793 5794 5796 5796 5797 5798
5802 5801 5800 5799 5798 5797 5795 5794 5792 5791 5789 5788 5787 5786 5785 5785 5784 5783 5783 5782 5782 5782 5782 5781 5781 5781 5781 5782 5782 5782 5782 5782 5782 5783 5784 5785 5786 5787 5788 5788 5789 5790 5790
5797 5796 5794 5793 5792 5791 5789 5788 5786 5785 5783 5782 5781 5780 5779 5778 5778 5777 5777 5776 5776 5775 5775 5775 5775 5775 5775 5775 5775 5775 5775 5776 5776 5776 5777 5778 5779 5780 5781 5781 5782 5783 5783
5792 5790 5789 5788 5786 5785 5783 5781 5780 5778 5777 5776 5775 5774 5773 5772 5772 5771 5771 5770 5770 5769 5769 5769 5768 5769 5769 5769 5769 5769 5769 5770 5770 5770 5771 5772 5773 5773 5774 5775 5775 5775 5776
5786 5785 5783 5782 5780 5778 5777 5775 5773 5772 5771 5770 5769 5768 5766 5766 5765 5765 5764 5764 5764 5763 5763 5763 5762 5762 5762 5763 5763 5763 5764 5764 5764 5765 5765 5766 5766 5767 5767 5768 5768 5768 5769
5781 5779 5777 5776 5774 5772 5770 5768 5767 5765 5764 5763 5762 5762 5761 5760 5759 5759 5758 5758 5757 5757 5757 5757 5757 5757 5757 5757 5757 5757 5758 5758 5758 5759 5759 5760 5760 5760 5761 5761 5762 5762 5763
5775 5773 5772 5769 5767 5765 5764 5762 5760 5759 5758 5757 5756 5755 5754 5754 5753 5753 5752 5752 5752 5752 5751 5751 5751 5751 5751 5751 5752 5752 5752 5752 5753 5753 5753 5754 5754 5755 5755 5755 5756 5756 5756
5769 5767 5765 5763 5761 5759 5757 5755 5754 5752 5751 5750 5750 5749 5749 5748 5747 5747 5747 5746 5746 5746 5746 5746 5746 5745 5746 5746 5746 5746 5747 5747 5748 5748 5748 5749 5749 5749 5750 5750 5750 5750 5750
5763 5761 5759 5757 5755 5753 5751 5749 5747 5746 5745 5744 5744 5743 5743 5742 5742 5741 5741 5741 5741 5741 5741 5741 5741 5741 5741 5741 5741 5742 5742 5742 5743 5744 5744 5744 5744 5744 5745 5745 5745 5745 5745
5757 5755 5752 5750 5748 5746 5744 5743 5741 5740 5739 5739 5738 5738 5737 5737 5736 5736 5736 5736 5736 5736 5736 5736 5736 5736 5737 5737 5737 5737 5738 5738 5739 5739 5740 5740 5740 5740 5740 5740 5739 5739 5739
5751 5748 5746 5744 5742 5740 5738 5737 5736 5735 5734 5733 5733 5733 5732 5732 5732 5732 5732 5732 5732 5732 5732 5732 5732 5732 5733 5733 5733 5734 5734 5734 5735 5735 5735 5736 5736 5735 5735 5735 5735 5734 5734
5745 5743 5740 5738 5736 5735 5733 5732 5731 5730 5729 5729 5728 5728 5727 5727 5727 5727 5728 5728 5728 5728 5728 5728 5729 5729 5729 5730 5730 5731 5731 5731 5731 5732 5732 5732 5732 5732 5731 5731 5731 5730 5729
5739 5737 5735 5733 5731 5730 5729 5727 5727 5726 5725 5725 5724 5724 5724 5724 5724 5724 5724 5724 5724 5725 5725 5725 5726 5726 5727 5727 5728 5728 5728 5729 5729 5729 5729 5729 5729 5728 5728 5727 5727 5726 5725
5735 5733 5731 5729 5727 5726 5725 5724 5723 5722 5722 5722 5721 5721 5721 5721 5721 5721 5721 5722 5722 5722 5722 5723 5723 5724 5724 5725 5725 5726 5726 5726 5726 5727 5726 5726 5726 5725 5725 5724 5724 5723 5722
5731 5729 5727 5726 5724 5723 5721 5720 5720 5719 5719 5719 5718 5719 5718 5718 5719 5719 5719 5720 5720 5720 5721 5721 5722 5722 5723 5723 5724 5724 5724 5724 5724 5725 5725 5724 5724 5723 5723 5722 5721 5720 5719
5729 5726 5724 5723 5722 5720 5719 5718 5718 5717 5717 5717 5717 5717 5717 5717 5718 5718 5719 5719 5719 5720 5720 5720 5721 5721 5722 5722 5722 5723 5723 5723 5723 5723 5723 5723 5722 5722 5721 5720 5719 5717 5716
5726 5724 5722 5721 5719 5718 5717 5716 5716 5716 5715 5716 5716 5716 5717 5717 5718 5718 5718 5719 5719 5720 5720 5720 5721 5721 5721 5721 5721 5722 5722 5722 5722 5722 5722 5722 5721 5720 5720 5719 5717 5716 5715
5725 5723 5721 5720 5718 5717 5716 5716 5715 5715 5715 5716 5716 5716 5717 5717 5718 5719 5719 5719 5720 5720 5720 5721 5721 5721 5721 5721 5721 5721 5722 5722 5722 5722 5722 5721 5721 5720 5719 5718 5717 5716 5715
5724 5722 5721 5719 5718 5717 5716 5716 5716 5716 5716 5717 5717 5718 5718 5719 5719 5720 5720 5720 5721 5721 5721 5721 5721 5721 5721 5721 5721 5722 5722 5722 5722 5722 5722 5722 5721 5720 5719 5718 5717 5716 5715
Wind_Speed
20 21 22 22 23 24 24 25 25 25 26 27 27 28 28 29 30 30 30 31 31 32 32 32 32 32 31 31 30 30 31 31 30 29 30 31 31 30 29 30 29 28 28
19 20 21 22 23 24 25 26 26 27 28 28 29 30 30 30 31 31 31 32 32 32 32 32 32 32 32 31 30 29 30 30 31 31 31 31 32 31 31 32 32 31 31
18 19 21 22 23 25 26 27 28 29 30 30 31 31 31 31 31 31 32 32 32 32 32 32 31 31 31 31 31 31 31 31 32 33 33 32 31 31 32 32 32 32 32
19 20 21 22 24 25 26 27 28 29 30 31 32 32 32 32 32 32 32 31 32 32 32 31 32 31 31 30 30 31 32 32 33 33 33 33 32 32 33 32 32 33 34
20 21 22 24 25 26 26 27 28 29 30 31 31 31 32 31 31 31 31 31 32 31 31 32 31 31 30 30 31 32 32 32 32 33 32 32 32 32 32 31 31 32 34
19 21 22 23 24 25 25 26 28 29 29 30 31 31 31 31 31 31 31 31 30 29 30 30 31 31 30 30 30 31 31 32 32 32 32 32 33 32 32 31 31 32 32
21 21 22 23 24 24 25 26 27 28 28 28 29 29 29 29 29 30 31 30 30 29 28 29 29 29 30 29 30 30 31 30 31 31 32 32 32 32 31 31 30 31 32
21 22 22 23 24 25 25 26 26 27 27 27 28 28 28 28 28 29 30 29 29 28 28 28 28 28 28 28 28 28 29 29 29 29 29 30 30 30 30 30 31 32 32
21 22 23 24 25 25 26 26 26 26 26 26 26 26 26 26 27 28 28 28 28 28 28 27 27 27 27 27 27 28 27 27 27 28 28 29 29 30 30 30 30 30 31
22 22 23 24 24 25 26 26 26 26 26 26 25 26 26 26 26 26 26 26 26 26 27 27 27 27 27 26 26 27 27 27 27 27 27 28 27 28 29 28 28 28 29
22 23 23 24 25 26 26 26 26 25 25 25 24 24 25 25 25 25 25 25 26 25 26 25 26 26 26 26 25 25 26 26 26 27 27 27 28 28 29 28 27 27 28
23 23 24 24 25 25 26 26 25 24 24 24 23 23 23 24 24 25 25 25 25 25 25 25 25 25 25 25 25 25 25 24 24 25 26 26 27 27 27 27 26 26 27
24 24 25 25 26 25 25 25 24 24 23 23 23 23 23 23 23 23 23 22 23 23 23 23 24 24 23 23 24 24 24 24 23 24 25 25 26 26 25 25 25 25 25
24 25 25 25 26 25 25 24 24 24 23 23 23 23 23 22 21 21 21 22 22 22 22 22 23 23 22 22 23 22 22 22 22 23 23 23 22 22 22 23 23 23 23
24 25 25 25 25 25 24 25 25 24 23 22 22 22 22 21 21 21 21 20 20 20 20 20 20 21 21 21 21 20 20 20 20 20 20 19 19 19 20 21 21 22 22
25 25 25 25 24 24 24 25 24 23 22 21 20 20 20 19 19 20 20 19 18 17 17 17 17 18 17 17 18 18 17 17 17 17 17 18 18 18 18 19 20 21 21
24 24 24 24 24 24 24 23 22 21 20 19 19 18 18 17 17 18 18 17 17 16 16 16 15 14 15 15 15 15 16 16 16 16 16 17 17 17 17 18 18 18 19
23 23 23 23 22 22 21 20 19 18 18 18 17 17 16 16 16 16 16 16 16 15 15 15 15 14 14 14 13 13 13 13 13 14 14 15 15 16 16 16 17 17 18
22 22 21 21 20 19 19 18 17 16 16 15 15 15 15 14 15 14 14 14 14 14 13 13 13 12 12 12 11 11 11 11 11 11 12 12 12 12 13 14 15 15 16
20 20 19 18 18 17 16 16 15 14 14 13 13 13 13 13 12 12 11 11 11 11 11 11 10 10 9 9 9 9 9 9 9 10 10 10 10 11 11 12 13 13 14
18 17 16 16 15 14 14 13 12 12 11 11 11 11 11 10 9 9 8 8 8 8 8 8 8 7 7 6 7 7 7 7 8 8 8 9 9 9 10 11 12 12 13
15 14 14 14 13 12 11 10 10 9 10 10 9 8 8 7 6 5 6 6 6 5 5 5 5 5 5 5 5 5 5 6 6 6 7 7 8 9 9 10 11 11 11
14 13 13 12 11 10 9 9 9 8 8 7 5 5 4 4 4 4 3 3 3 3 2 2 2 2 3 3 3 4 4 4 4 5 5 6 7 8 8 9 9 9 9
13 12 11 10 9 8 7 6 6 5 4 3 3 2 2 2 1 1 1 1 1 1 1 1 1 2 2 3 3 3 3 3 4 4 5 6 6 6 7 8 8 9 9
12 10 9 8 7 6 4 3 3 2 1 1 1 1 2 3 3 3 3 2 2 2 2 2 3 3 3 3 3 2 3 3 4 4 5 5 5 6 6 7 8 8 9
10 9 7 6 5 4 3 2 2 2 2 2 3 4 4 4 4 4 5 4 4 4 4 3 4 5 5 5 5 5 5 5 5 5 5 6 6 7 8 8 9 9 9
Wind_Direction
267 269 271 273 275 276 277 278 280 280 279 280 280 279 279 279 277 276 276 276 277 278 279 278 277 273 271 270 264 263 261 261 261 264 265 263 261 262 264 264 264 264 262
266 269 271 273 275 277 278 279 280 280 281 282 283 282 280 279 278 276 275 275 277 279 278 277 276 273 271 269 263 263 263 261 261 263 265 265 262 261 262 263 263 263 262
266 269 272 275 277 278 278 279 280 281 282 283 283 281 280 279 277 275 276 276 277 278 278 275 274 273 270 268 267 266 263 262 263 264 265 264 262 261 262 261 259 260 261
270 272 275 277 278 279 279 279 280 282 282 282 281 280 279 278 277 276 275 276 276 277 277 277 276 276 272 269 268 266 263 263 262 263 264 263 261 260 260 260 259 260 260
274 276 277 278 280 280 279 279 281 282 281 280 280 279 278 277 276 275 275 275 276 276 277 278 277 275 273 272 269 267 265 265 263 262 263 264 263 261 261 261 261 261 260
277 278 279 279 281 281 279 280 281 282 281 280 279 278 277 276 276 276 276 277 276 276 277 279 278 276 274 273 271 269 269 267 264 263 263 264 263 263 262 263 262 261 260
278 279 279 280 281 281 280 281 282 282 280 281 279 278 278 277 277 276 277 278 278 277 277 278 278 277 274 274 273 272 271 270 267 264 263 263 261 262 263 264 264 261 262
281 281 281 282 282 282 282 284 284 283 281 281 280 278 277 277 277 277 278 279 278 278 277 278 277 277 275 275 274 274 272 271 269 266 264 263 262 262 261 263 264 262 262
285 285 285 284 285 285 285 285 285 284 283 282 281 279 277 277 278 279 278 278 278 278 277 279 278 276 276 276 275 274 273 272 269 267 266 264 262 262 263 264 264 263 263
285 286 288 288 288 288 288 287 286 284 283 282 279 278 278 277 278 279 279 277 277 277 276 277 276 276 274 275 275 274 272 271 270 268 268 264 264 264 265 265 265 266 266
288 289 289 290 290 290 290 289 288 286 283 281 280 279 277 276 276 277 277 278 278 278 277 277 276 275 275 274 273 273 271 271 269 268 267 267 267 267 266 266 267 268 269
291 290 290 290 291 291 290 290 289 287 285 284 282 280 279 278 277 277 277 277 278 279 279 278 276 275 274 272 271 272 271 271 269 270 268 269 271 270 268 268 269 272 275
292 291 291 291 292 292 291 290 288 286 286 284 282 280 279 279 278 277 277 278 277 277 278 278 277 276 274 272 272 273 273 273 271 271 270 270 272 273 272 273 274 275 275
292 292 292 292 292 292 291 291 289 286 285 285 283 281 280 279 278 278 278 279 278 278 278 278 276 275 273 274 274 274 275 273 272 273 274 275 275 277 277 277 278 280 282
293 293 293 293 293 292 291 291 289 286 285 284 282 281 280 279 278 278 279 280 281 281 280 280 277 276 277 276 276 277 278 278 277 277 278 279 279 278 281 283 285 287 289
295 294 292 292 293 292 290 291 288 287 286 284 282 281 281 280 279 279 279 280 280 280 281 280 279 277 276 275 274 278 279 277 280 280 279 281 282 284 287 289 290 290 291
297 295 294 294 293 292 290 289 287 286 284 283 282 281 280 279 280 279 278 278 278 278 279 278 281 277 279 278 276 280 281 278 280 282 281 283 285 285 287 290 292 293 294
299 296 295 294 293 292 290 289 287 286 285 283 282 279 277 277 277 278 277 276 278 276 276 277 278 276 276 278 277 279 281 283 285 285 284 284 285 286 289 291 293 295 296
299 296 295 294 293 290 289 289 288 286 285 283 281 281 279 277 277 275 276 278 277 274 274 276 276 275 276 277 280 285 286 286 286 288 288 288 289 292 293 293 295 297 298
303 298 295 296 293 291 290 289 289 288 285 283 282 281 281 280 278 274 276 277 277 275 271 272 275 274 275 275 277 283 286 289 289 291 294 295 295 296 297 298 300 301 302
307 303 299 299 298 295 294 293 292 289 287 285 283 282 282 279 275 272 270 270 277 276 274 273 276 277 279 278 275 281 286 288 288 289 293 298 301 302 303 306 306 305 306
312 309 306 305 303 299 296 297 292 291 288 286 281 279 282 279 270 263 262 266 268 271 275 277 277 282 285 283 286 290 294 291 290 294 299 304 308 314 315 313 313 312 311
320 317 312 310 308 305 298 295 294 295 290 287 283 277 273 267 261 264 270 271 274 279 282 282 283 292 304 305 300 303 306 312 314 315 318 319 321 325 331 334 332 330 327
328 323 319 316 312 312 306 300 298 297 290 282 274 257 246 237 233 265 280 295 325 340 345 358 6 346 329 326 326 322 327 335 338 336 338 339 343 350 351 350 350 349 348
337 334 333 332 328 322 320 312 311 311 317 339 122 122 129 123 106 92 89 92 85 81 68 55 37 24 23 16 12 25 23 16 15 14 14 14 9 5 4 4 4 5 6
350 351 352 356 359 4 12 19 17 34 54 82 95 104 110 106 98 89 82 79 84 81 69 60 48 48 51 49 51 54 53 50 47 43 39 35 31 29 27 24 21 18 16